• In Germany
  • List of Countries
  • For 7 days
  • Water Temperature
  • Satellite Maps
  • Weather Map
  • Weather Widgets
  • user-avatar
    Login

    Hourly Weather Pinsa

    Today, 20 May, Sunday

    Time Temperature Precipitation Wind Pressure Humidity
    00:00 +38°C° 0 mm 3 mps 732 mmHg 23%
    01:00 +38°C° 0 mm 4 mps 731 mmHg 24%
    02:00 +37°C° 0 mm 4 mps 731 mmHg 26%
    03:00 +36°C° 0 mm 4 mps 731 mmHg 28%
    04:00 +36°C° 0 mm 4 mps 731 mmHg 30%
    05:00 +36°C° 0 mm 4 mps 731 mmHg 32%
    06:00 +35°C° 0 mm 4 mps 732 mmHg 35%
    07:00 +37°C° 0 mm 5 mps 732 mmHg 33%
    08:00 +39°C° 0 mm 6 mps 732 mmHg 31%
    09:00 +41°C° 0 mm 7 mps 733 mmHg 29%
    10:00 +42°C° 0 mm 6 mps 732 mmHg 25%
    11:00 +45°C° 0 mm 5 mps 732 mmHg 21%
    12:00 +45°C° 0 mm 4 mps 732 mmHg 18%
    13:00 +45°C° 0 mm 3 mps 731 mmHg 16%
    14:00 +46°C° 0 mm 3 mps 731 mmHg 14%
    15:00 +46°C° 0 mm 2 mps 730 mmHg 12%
    16:00 +46°C° 0 mm 2 mps 730 mmHg 12%
    17:00 +45°C° 0 mm 2 mps 730 mmHg 12%
    18:00 +45°C° 0 mm 2 mps 730 mmHg 13%
    19:00 +43°C° 0 mm 2 mps 730 mmHg 13%
    20:00 +42°C° 0 mm 2 mps 731 mmHg 13%
    21:00 +42°C° 0 mm 2 mps 731 mmHg 14%
    22:00 +41°C° 0 mm 2 mps 731 mmHg 14%
    23:00 +41°C° 0 mm 2 mps 731 mmHg 15%

    Tomorrow, 21 May, Monday

    Time Temperature Precipitation Wind Pressure Humidity
    00:00 +40°C° 0 mm 3 mps 731 mmHg 15%
    01:00 +41°C° 0 mm 4 mps 731 mmHg 17%
    02:00 +40°C° 0 mm 5 mps 731 mmHg 19%
    03:00 +40°C° 0 mm 6 mps 730 mmHg 20%
    04:00 +39°C° 0 mm 5 mps 730 mmHg 23%
    05:00 +37°C° 0 mm 5 mps 731 mmHg 26%
    06:00 +36°C° 0 mm 5 mps 731 mmHg 29%
    07:00 +39°C° 0 mm 5 mps 731 mmHg 26%
    08:00 +41°C° 0 mm 6 mps 731 mmHg 24%
    09:00 +44°C° 0 mm 7 mps 732 mmHg 22%
    10:00 +45°C° 0 mm 6 mps 732 mmHg 19%
    11:00 +46°C° 0 mm 5 mps 731 mmHg 17%
    12:00 +47°C° 0 mm 4 mps 731 mmHg 15%
    13:00 +46°C° 0 mm 3 mps 730 mmHg 14%
    14:00 +46°C° 0 mm 2 mps 730 mmHg 13%
    15:00 +45°C° 0 mm 1 mps 729 mmHg 13%
    16:00 +44°C° 0 mm 1 mps 729 mmHg 13%
    17:00 +44°C° 0 mm 1 mps 729 mmHg 14%
    18:00 +43°C° 0 mm 1 mps 729 mmHg 15%
    19:00 +43°C° 0 mm 1 mps 729 mmHg 15%
    20:00 +42°C° 0 mm 1 mps 730 mmHg 16%
    21:00 +42°C° 0 mm 1 mps 730 mmHg 16%
    22:00 +42°C° 0 mm 2 mps 730 mmHg 17%
    23:00 +41°C° 0 mm 2 mps 730 mmHg 17%

    Day after tomorrow, 22 May, Tuesday

    Time Temperature Precipitation Wind Pressure Humidity
    00:00 +42°C° 0 mm 3 mps 730 mmHg 18%
    01:00 +41°C° 0 mm 4 mps 730 mmHg 21%
    02:00 +41°C° 0 mm 5 mps 730 mmHg 24%
    03:00 +40°C° 0 mm 6 mps 730 mmHg 27%
    04:00 +39°C° 0 mm 6 mps 730 mmHg 32%
    05:00 +38°C° 0 mm 6 mps 730 mmHg 36%
    06:00 +36°C° 0 mm 6 mps 731 mmHg 41%
    07:00 +38°C° 0 mm 7 mps 731 mmHg 39%
    08:00 +39°C° 0 mm 8 mps 731 mmHg 38%
    09:00 +40°C° 0 mm 9 mps 732 mmHg 36%
    10:00 +43°C° 0 mm 8 mps 732 mmHg 31%
    11:00 +45°C° 0 mm 7 mps 732 mmHg 26%
    12:00 +47°C° 0 mm 6 mps 731 mmHg 21%
    13:00 +47°C° 0 mm 5 mps 731 mmHg 19%
    14:00 +48°C° 0 mm 4 mps 730 mmHg 17%
    15:00 +47°C° 0 mm 3 mps 729 mmHg 15%
    16:00 +47°C° 0 mm 3 mps 729 mmHg 16%
    17:00 +46°C° 0 mm 2 mps 729 mmHg 16%
    18:00 +45°C° 0 mm 2 mps 729 mmHg 16%
    19:00 +45°C° 0 mm 2 mps 730 mmHg 17%
    20:00 +43°C° 0 mm 2 mps 730 mmHg 18%
    21:00 +43°C° 0 mm 3 mps 731 mmHg 19%
    22:00 +43°C° 0 mm 4 mps 731 mmHg 22%
    23:00 +42°C° 0 mm 5 mps 731 mmHg 25%

    23 May, Wednesday

    Time Temperature Precipitation Wind Pressure Humidity
    00:00 +41°C° 0 mm 6 mps 731 mmHg 28%
    01:00 +40°C° 0 mm 7 mps 731 mmHg 33%
    02:00 +38°C° 0 mm 8 mps 731 mmHg 39%
    03:00 +37°C° 0 mm 10 mps 731 mmHg 45%
    04:00 +37°C° 0 mm 9 mps 731 mmHg 46%
    05:00 +35°C° 0 mm 8 mps 731 mmHg 48%
    06:00 +35°C° 0 mm 7 mps 732 mmHg 50%
    07:00 +37°C° 0 mm 8 mps 732 mmHg 47%
    08:00 +38°C° 0 mm 8 mps 733 mmHg 45%
    09:00 +39°C° 0 mm 8 mps 734 mmHg 42%
    10:00 +41°C° 0 mm 8 mps 733 mmHg 38%
    11:00 +43°C° 0 mm 8 mps 733 mmHg 33%
    12:00 +45°C° 0 mm 7 mps 733 mmHg 28%
    13:00 +46°C° 0 mm 6 mps 732 mmHg 26%
    14:00 +46°C° 0 mm 5 mps 732 mmHg 24%
    15:00 +47°C° 0 mm 4 mps 731 mmHg 22%
    16:00 +45°C° 0 mm 4 mps 731 mmHg 22%
    17:00 +45°C° 0 mm 4 mps 731 mmHg 23%
    18:00 +44°C° 0 mm 3 mps 731 mmHg 23%
    19:00 +43°C° 0.1 mm 4 mps 732 mmHg 26%
    20:00 +42°C° 0.1 mm 5 mps 732 mmHg 29%
    21:00 +40°C° 0.1 mm 5 mps 733 mmHg 32%
    22:00 +39°C° 0 mm 6 mps 733 mmHg 35%
    23:00 +38°C° 0 mm 7 mps 733 mmHg 38%

    24 May, Thursday

    Time Temperature Precipitation Wind Pressure Humidity
    00:00 +38°C° 0 mm 8 mps 733 mmHg 41%
    01:00 +36°C° 0 mm 7 mps 733 mmHg 40%
    02:00 +36°C° 0 mm 5 mps 732 mmHg 39%
    03:00 +36°C° 0 mm 4 mps 732 mmHg 39%
    04:00 +36°C° 0 mm 5 mps 732 mmHg 41%
    05:00 +36°C° 0 mm 5 mps 732 mmHg 43%
    06:00 +36°C° 0 mm 6 mps 732 mmHg 45%
    07:00 +38°C° 0 mm 6 mps 732 mmHg 41%
    08:00 +39°C° 0 mm 6 mps 733 mmHg 38%
    09:00 +41°C° 0 mm 7 mps 733 mmHg 35%
    10:00 +42°C° 0 mm 6 mps 733 mmHg 32%
    11:00 +43°C° 0 mm 5 mps 732 mmHg 29%
    12:00 +44°C° 0 mm 4 mps 732 mmHg 25%
    13:00 +45°C° 0 mm 3 mps 731 mmHg 24%
    14:00 +45°C° 0 mm 3 mps 731 mmHg 22%
    15:00 +45°C° 0 mm 2 mps 730 mmHg 20%
    16:00 +45°C° 0.1 mm 2 mps 730 mmHg 21%
    17:00 +44°C° 0.1 mm 3 mps 730 mmHg 22%
    18:00 +43°C° 0.1 mm 3 mps 730 mmHg 23%
    19:00 +42°C° 0.8 mm 5 mps 730 mmHg 27%
    20:00 +41°C° 0.8 mm 6 mps 731 mmHg 30%
    21:00 +39°C° 0.8 mm 7 mps 731 mmHg 34%
    22:00 +39°C° 0.7 mm 6 mps 731 mmHg 32%
    23:00 +40°C° 0.7 mm 6 mps 731 mmHg 30%

    25 May, Friday

    Time Temperature Precipitation Wind Pressure Humidity
    00:00 +40°C° 0.7 mm 5 mps 731 mmHg 27%
    01:00 +39°C° 0.1 mm 5 mps 731 mmHg 29%
    02:00 +38°C° 0.1 mm 6 mps 731 mmHg 31%
    03:00 +38°C° 0.1 mm 6 mps 730 mmHg 33%
    04:00 +38°C° 0 mm 6 mps 730 mmHg 34%
    05:00 +38°C° 0 mm 6 mps 731 mmHg 35%
    06:00 +36°C° 0 mm 6 mps 731 mmHg 36%
    07:00 +38°C° 0 mm 7 mps 731 mmHg 35%
    08:00 +39°C° 0 mm 7 mps 732 mmHg 33%
    09:00 +40°C° 0 mm 8 mps 732 mmHg 31%
    10:00 +41°C° 0 mm 8 mps 732 mmHg 29%
    11:00 +43°C° 0 mm 8 mps 731 mmHg 26%
    12:00 +45°C° 0 mm 7 mps 731 mmHg 23%
    13:00 +45°C° 0 mm 7 mps 730 mmHg 22%
    14:00 +46°C° 0 mm 6 mps 730 mmHg 21%
    15:00 +46°C° 0 mm 5 mps 729 mmHg 19%
    16:00 +46°C° 0 mm 5 mps 729 mmHg 19%
    17:00 +45°C° 0 mm 4 mps 729 mmHg 19%
    18:00 +44°C° 0 mm 3 mps 729 mmHg 19%
    19:00 +44°C° 0 mm 3 mps 729 mmHg 20%
    20:00 +43°C° 0 mm 3 mps 730 mmHg 21%
    21:00 +42°C° 0 mm 3 mps 730 mmHg 22%
    22:00 +42°C° 0 mm 3 mps 730 mmHg 22%
    23:00 +41°C° 0 mm 4 mps 730 mmHg 23%
    Show more